Preview of NWS' New Version of Forecast
This preview is not operational and should not be used for support decisions.

Regional Weather Roundup (RWR)

Issued by National Weather Service (NWS)

                            
000
ASUS43 KBIS 190202
RWRND 

NORTH DAKOTA REGIONAL WEATHER ROUNDUP
NATIONAL WEATHER SERVICE BISMARCK ND
900 PM CDT THU APR 18 2019

NOTE: "FAIR" INDICATES FEW OR NO CLOUDS BELOW 12,000 FEET WITH NO
SIGNIFICANT WEATHER AND/OR OBSTRUCTIONS TO VISIBILITY.


NDZ001>003-009>011-017-190300-
NORTHWEST NORTH DAKOTA
  
CITY           SKY/WX    TMP DP  RH WIND       PRES   REMARKS
WILLISTON      PTCLDY    44  27  51 CALM      30.02F                  
MINOT          CLEAR     52  34  50 W5        30.03S                  
MINOT AFB      CLEAR     44  35  71 W3        30.02S                  
$$
 
NDZ018>021-031>035-040>046-190300-
SOUTHWEST NORTH DAKOTA
  
CITY           SKY/WX    TMP DP  RH WIND       PRES   REMARKS
BISMARCK       CLEAR     50  34  54 CALM      30.08R                  
DICKINSON      CLEAR     50  22  33 N5        30.05S                  
GARRISON         N/A     46  35  65 CALM      30.04S                  
HETTINGER ARPT CLEAR     48  24  39 N6        30.10R                  
$$
 
NDZ004>008-012>016-024-026-027-054-190300-
NORTHEAST NORTH DAKOTA
  
CITY           SKY/WX    TMP DP  RH WIND       PRES   REMARKS
GRAND FORKS    CLEAR     48  37  65 SW3       30.01R                  
DEVILS LAKE    CLEAR     43  37  79 SW7       30.05R                  
$$
 
NDZ022-023-025-028>030-036>039-047>053-190300-
SOUTHEAST NORTH DAKOTA
  
CITY           SKY/WX    TMP DP  RH WIND       PRES   REMARKS
FARGO          CLEAR     47  38  71 NW6       30.02R                  
JAMESTOWN      CLEAR     44  37  76 NW7       30.04R                  
$$